Charlevoix, MI

3:38 PM EST on February 27, 2017 (GMT -0500)
Charlevoix Municipal

Weather History for KCVX - November, 2011

Change the Weather History Date:

Sunday, November 13, 2011

  Actual Average Record
Temperature  
Mean Temperature 54 °F -  
Max Temperature 59 °F 38 °F 59 °F (2005)
Min Temperature 50 °F 30 °F 21 °F (2004)
Degree Days  
Heating Degree Days 10    
Growing Degree Days 4 (Base 50)    
Moisture  
Dew Point 46 °F    
Average Humidity 75    
Maximum Humidity 94    
Minimum Humidity 58    
Precipitation  
Precipitation 0.00 in - - ()
Sea Level Pressure  
Sea Level Pressure 29.36 in    
Wind  
Wind Speed 11 mph (South)    
Max Wind Speed 20 mph    
Max Gust Speed 31 mph    
Visibility 10 miles    
Events Rain    
Averages and records for this station are not official NWS values.
T = Trace of Precipitation, MM = Missing Value Source: NWS Daily Summary

Daily Weather History Graph

Daily Weather History Graph

Search for Another Location

Airport or City:

Trip Planner

Search our weather history database for the weather conditions in past years. The results will help you decide how hot, cold, wet, or windy it might be!

Date:

Astronomy

Nov. 13, 2011 Rise Set
Actual Time 7:36 AM EST 5:13 PM EST
Civil Twilight 7:04 AM EST 5:45 PM EST
Nautical Twilight 6:29 AM EST 6:21 PM EST
Astronomical Twilight 5:54 AM EST 6:55 PM EST
Moon 7:16 PM EST (11/13) 10:13 AM EST (11/13)
Length of Visible Light 10h 40m
Length of Day
9h 37m
Waning Gibbous, 93% of the Moon is Illuminated
Nov 13
Waning Gibbous
Nov 18
Last Quarter
Nov 25
New
Dec 2
First Quarter
Dec 10
Full

Hourly Weather History & Observations

Time (EST) Temp. Dew Point Humidity Pressure Visibility Wind Dir Wind Speed Gust Speed Precip Events Conditions
12:14 AM 50.0 °F 35.6 °F 58% 29.56 in 10.0 mi SSE 8.1 mph - N/A   Clear
12:34 AM 50.0 °F 35.6 °F 58% 29.55 in 10.0 mi South 9.2 mph - N/A   Clear
12:55 AM 51.8 °F 37.4 °F 58% 29.54 in 10.0 mi South 11.5 mph 17.3 mph N/A   Clear
1:34 AM 51.8 °F 37.4 °F 58% 29.52 in 10.0 mi South 13.8 mph 20.7 mph N/A   Clear
1:55 AM 51.8 °F 39.2 °F 62% 29.51 in 10.0 mi South 13.8 mph 23.0 mph N/A   Clear
2:14 AM 51.8 °F 39.2 °F 62% 29.50 in 10.0 mi South 13.8 mph 21.9 mph N/A   Clear
2:35 AM 51.8 °F 39.2 °F 62% 29.49 in 10.0 mi South 18.4 mph 23.0 mph N/A   Clear
3:14 AM 51.8 °F 41.0 °F 67% 29.48 in 10.0 mi South 11.5 mph 21.9 mph N/A   Clear
3:35 AM 51.8 °F 41.0 °F 67% 29.47 in 10.0 mi South 11.5 mph 17.3 mph N/A   Clear
3:55 AM 51.8 °F 42.8 °F 71% 29.46 in 10.0 mi South 11.5 mph 18.4 mph N/A   Mostly Cloudy
4:14 AM 51.8 °F 42.8 °F 71% 29.46 in 10.0 mi South 10.4 mph 18.4 mph N/A   Overcast
4:35 AM 51.8 °F 42.8 °F 71% 29.45 in 10.0 mi South 9.2 mph 17.3 mph N/A   Mostly Cloudy
4:54 AM 51.8 °F 42.8 °F 71% 29.44 in 10.0 mi SSE 10.4 mph 17.3 mph N/A   Scattered Clouds
5:14 AM 51.8 °F 42.8 °F 71% 29.44 in 10.0 mi SSE 12.7 mph - N/A   Scattered Clouds
5:35 AM 51.8 °F 42.8 °F 71% 29.43 in 10.0 mi SSE 9.2 mph - N/A   Scattered Clouds
5:54 AM 51.8 °F 42.8 °F 71% 29.42 in 10.0 mi SSE 8.1 mph - N/A   Mostly Cloudy
6:14 AM 51.8 °F 44.6 °F 76% 29.42 in 10.0 mi SSE 6.9 mph - N/A   Overcast
6:34 AM 51.8 °F 44.6 °F 76% 29.41 in 10.0 mi SSE 6.9 mph - N/A   Overcast
6:54 AM 51.8 °F 44.6 °F 76% 29.41 in 10.0 mi SSE 6.9 mph - N/A   Overcast
7:15 AM 51.8 °F 44.6 °F 76% 29.40 in 10.0 mi SE 6.9 mph - N/A   Overcast
7:54 AM 53.6 °F 46.4 °F 77% 29.39 in 10.0 mi SSE 9.2 mph - N/A   Overcast
8:15 AM 53.6 °F 46.4 °F 77% 29.40 in 10.0 mi South 11.5 mph - N/A   Overcast
8:34 AM 53.6 °F 46.4 °F 77% 29.39 in 10.0 mi South 8.1 mph 16.1 mph N/A   Overcast
8:55 AM 55.4 °F 46.4 °F 72% 29.39 in 10.0 mi South 11.5 mph 16.1 mph N/A   Overcast
9:34 AM 55.4 °F 46.4 °F 72% 29.38 in 10.0 mi SSW 15.0 mph 21.9 mph N/A   Mostly Cloudy
9:55 AM 55.4 °F 46.4 °F 72% 29.37 in 10.0 mi South 15.0 mph 27.6 mph N/A   Overcast
10:15 AM 55.4 °F 46.4 °F 72% 29.37 in 10.0 mi South 16.1 mph 19.6 mph N/A   Overcast
10:34 AM 55.4 °F 46.4 °F 72% 29.36 in 10.0 mi South 11.5 mph 20.7 mph N/A   Overcast
10:55 AM 55.4 °F 46.4 °F 72% 29.36 in 10.0 mi South 11.5 mph 26.5 mph N/A   Overcast
11:14 AM 55.4 °F 46.4 °F 72% 29.35 in 10.0 mi South 13.8 mph 20.7 mph N/A   Overcast
11:34 AM 55.4 °F 46.4 °F 72% 29.35 in 10.0 mi SSW 15.0 mph 21.9 mph N/A   Mostly Cloudy
11:55 AM 55.4 °F 46.4 °F 72% 29.34 in 10.0 mi SSW 19.6 mph 25.3 mph N/A   Mostly Cloudy
12:14 PM 55.4 °F 48.2 °F 77% 29.34 in 10.0 mi SSW 13.8 mph 25.3 mph N/A   Mostly Cloudy
12:34 PM 57.2 °F 48.2 °F 72% 29.34 in 10.0 mi SSW 13.8 mph 23.0 mph N/A   Overcast
12:55 PM 57.2 °F 48.2 °F 72% 29.33 in 10.0 mi SSW 11.5 mph 20.7 mph N/A   Overcast
1:14 PM 57.2 °F 48.2 °F 72% 29.33 in 10.0 mi South 16.1 mph 26.5 mph N/A   Overcast
1:34 PM 57.2 °F 48.2 °F 72% 29.32 in 10.0 mi SSW 13.8 mph 21.9 mph N/A   Overcast
1:55 PM 57.2 °F 48.2 °F 72% 29.32 in 10.0 mi SSW 12.7 mph 20.7 mph N/A   Overcast
2:14 PM 57.2 °F 48.2 °F 72% 29.32 in 10.0 mi SSW 12.7 mph 19.6 mph N/A   Overcast
2:35 PM 57.2 °F 50.0 °F 77% 29.31 in 10.0 mi South 8.1 mph 19.6 mph N/A   Overcast
2:55 PM 57.2 °F 48.2 °F 72% 29.29 in 10.0 mi South 10.4 mph 17.3 mph N/A   Overcast
3:14 PM 57.2 °F 50.0 °F 77% 29.29 in 10.0 mi South 13.8 mph 21.9 mph N/A   Overcast
3:35 PM 59.0 °F 50.0 °F 72% 29.28 in 10.0 mi South 11.5 mph 19.6 mph N/A   Overcast
3:54 PM 57.2 °F 50.0 °F 77% 29.27 in 10.0 mi South 10.4 mph - N/A   Overcast
4:14 PM 55.4 °F 50.0 °F 82% 29.26 in 5.0 mi South 9.2 mph - N/A Rain Rain
4:35 PM 55.4 °F 51.8 °F 88% 29.26 in 10.0 mi South 9.2 mph 17.3 mph N/A Rain Rain
5:14 PM 55.4 °F 51.8 °F 88% 29.25 in 10.0 mi South 8.1 mph 18.4 mph N/A   Mostly Cloudy
5:35 PM 55.4 °F 50.0 °F 82% 29.24 in 10.0 mi South 8.1 mph - N/A   Mostly Cloudy
5:54 PM 55.4 °F 50.0 °F 82% 29.24 in 10.0 mi South 10.4 mph 20.7 mph N/A   Scattered Clouds
6:14 PM 55.4 °F 50.0 °F 82% 29.24 in 10.0 mi South 9.2 mph - N/A   Clear
6:34 PM 55.4 °F 50.0 °F 82% 29.24 in 10.0 mi SSE 9.2 mph - N/A   Clear
6:54 PM 55.4 °F 50.0 °F 82% 29.25 in 7.0 mi South 13.8 mph 20.7 mph N/A Rain Heavy Rain
7:15 PM 53.6 °F 48.2 °F 82% 29.27 in 10.0 mi SSW 13.8 mph 31.1 mph N/A Rain Light Rain
7:34 PM 51.8 °F 46.4 °F 82% 29.28 in 10.0 mi SSW 12.7 mph 18.4 mph N/A   Overcast
7:54 PM 51.8 °F 48.2 °F 88% 29.28 in 10.0 mi SW 11.5 mph 18.4 mph N/A   Overcast
8:15 PM 51.8 °F 48.2 °F 88% 29.29 in 10.0 mi WSW 17.3 mph 23.0 mph N/A   Overcast
8:34 PM 51.8 °F 48.2 °F 88% 29.29 in 10.0 mi WSW 13.8 mph 21.9 mph N/A   Overcast
8:55 PM 51.8 °F 48.2 °F 88% 29.30 in 10.0 mi SW 11.5 mph 17.3 mph N/A   Overcast
9:15 PM 50.0 °F 48.2 °F 94% 29.31 in 10.0 mi WSW 11.5 mph 18.4 mph N/A   Scattered Clouds
9:34 PM 50.0 °F 48.2 °F 94% 29.33 in 10.0 mi WSW 16.1 mph 23.0 mph N/A   Mostly Cloudy
10:15 PM 48.2 °F 46.4 °F 93% 29.35 in 7.0 mi SW 15.0 mph 21.9 mph N/A   Scattered Clouds
10:34 PM 48.2 °F 46.4 °F 93% 29.36 in 10.0 mi SW 11.5 mph 20.7 mph N/A   Mostly Cloudy
10:55 PM 48.2 °F 44.6 °F 87% 29.37 in 10.0 mi SW 10.4 mph - N/A   Mostly Cloudy
11:14 PM 48.2 °F 44.6 °F 87% 29.39 in 10.0 mi SW 11.5 mph 17.3 mph N/A   Scattered Clouds
11:35 PM 48.2 °F 44.6 °F 87% 29.39 in 10.0 mi WSW 11.5 mph 20.7 mph N/A   Mostly Cloudy
11:54 PM 48.2 °F 44.6 °F 87% 29.40 in 10.0 mi WSW 13.8 mph 25.3 mph N/A   Overcast